Time,TemperatureF,DewpointF,PressureIn,WindDirection,WindDirectionDegrees,WindSpeedMPH,WindSpeedGustMPH,Humidity,HourlyPrecipIn,Conditions,Clouds,dailyrainin,SoftwareType,DateUTC
2013-04-02 00:00:00,34.6,16.5,30.15,NW,323,5.0,8.0,47,0.00,,---,0.01,VWS V14.01,2013-04-02 04:00:00,
2013-04-02 00:05:00,34.6,16.5,30.15,NW,323,3.0,5.0,47,0.00,,---,0.00,VWS V14.01,2013-04-02 04:05:00,
2013-04-02 00:10:00,34.4,16.3,30.15,NNW,331,5.0,5.0,47,0.00,,---,0.00,VWS V14.01,2013-04-02 04:10:00,
2013-04-02 00:15:00,34.4,16.3,30.15,NW,324,4.0,6.0,47,0.00,,---,0.00,VWS V14.01,2013-04-02 04:15:00,
2013-04-02 00:20:00,34.3,16.7,30.15,NW,319,2.0,6.0,48,0.00,,---,0.00,VWS V14.01,2013-04-02 04:20:00,
2013-04-02 00:25:00,34.1,16.5,30.15,NW,311,3.0,6.0,48,0.00,,---,0.00,VWS V14.01,2013-04-02 04:25:00,
2013-04-02 00:30:00,34.0,16.9,30.15,NW,313,4.0,6.0,49,0.00,,---,0.00,VWS V14.01,2013-04-02 04:30:00,
2013-04-02 00:35:00,33.8,16.7,30.15,NW,317,3.0,4.0,49,0.00,,---,0.00,VWS V14.01,2013-04-02 04:35:00,
2013-04-02 00:40:00,33.7,16.6,30.15,NW,315,2.0,4.0,49,0.00,,---,0.00,VWS V14.01,2013-04-02 04:40:00,
2013-04-02 00:45:00,33.5,16.4,30.15,NW,315,3.0,4.0,49,0.00,,---,0.00,VWS V14.01,2013-04-02 04:45:00,
2013-04-02 00:50:00,33.5,16.9,30.15,NNW,328,4.0,5.0,50,0.00,,---,0.00,VWS V14.01,2013-04-02 04:50:00,
2013-04-02 00:55:00,33.4,16.8,30.15,NW,319,4.0,6.0,50,0.00,,---,0.00,VWS V14.01,2013-04-02 04:55:00,
2013-04-02 01:00:00,33.4,16.8,30.15,NW,317,3.0,6.0,50,0.00,,---,0.00,VWS V14.01,2013-04-02 05:00:00,
2013-04-02 01:05:00,33.2,17.0,30.16,NW,319,2.0,4.0,51,0.00,,---,0.00,VWS V14.01,2013-04-02 05:05:00,
2013-04-02 01:10:00,32.9,16.8,30.16,NW,317,3.0,5.0,51,0.00,,---,0.00,VWS V14.01,2013-04-02 05:10:00,
2013-04-02 01:15:00,32.9,16.8,30.16,NW,312,4.0,5.0,51,0.00,,---,0.00,VWS V14.01,2013-04-02 05:15:00,
2013-04-02 01:20:00,32.8,17.1,30.16,NW,312,4.0,5.0,52,0.00,,---,0.00,VWS V14.01,2013-04-02 05:20:00,
2013-04-02 01:25:00,32.7,17.0,30.16,NW,314,2.0,5.0,52,0.00,,---,0.00,VWS V14.01,2013-04-02 05:25:00,
2013-04-02 01:30:00,32.5,17.3,30.16,NW,318,3.0,6.0,53,0.00,,---,0.00,VWS V14.01,2013-04-02 05:30:00,
2013-04-02 01:35:00,32.5,17.3,30.16,NW,304,2.0,4.0,53,0.00,,---,0.00,VWS V14.01,2013-04-02 05:35:00,
2013-04-02 01:40:00,32.4,17.2,30.16,NW,315,4.0,4.0,53,0.00,,---,0.00,VWS V14.01,2013-04-02 05:40:00,
2013-04-02 01:45:00,32.4,17.2,30.17,NW,309,3.0,4.0,53,0.00,,---,0.00,VWS V14.01,2013-04-02 05:45:00,
2013-04-02 01:50:00,32.2,17.0,30.16,NW,326,3.0,5.0,53,0.00,,---,0.00,VWS V14.01,2013-04-02 05:50:00,
2013-04-02 01:55:00,32.2,17.0,30.16,NW,319,5.0,6.0,53,0.00,,---,0.00,VWS V14.01,2013-04-02 05:55:00,
2013-04-02 02:00:00,32.1,16.9,30.17,NW,318,4.0,6.0,53,0.00,,---,0.00,VWS V14.01,2013-04-02 06:00:00,
2013-04-02 02:05:00,31.9,16.7,30.17,NW,319,2.0,5.0,53,0.00,,---,0.00,VWS V14.01,2013-04-02 06:05:00,
2013-04-02 02:10:00,31.9,16.7,30.17,NW,321,1.0,5.0,53,0.00,,---,0.00,VWS V14.01,2013-04-02 06:10:00,
2013-04-02 02:15:00,31.9,16.7,30.17,NW,321,3.0,5.0,53,0.00,,---,0.00,VWS V14.01,2013-04-02 06:15:00,
2013-04-02 02:20:00,31.8,17.1,30.17,NW,323,3.0,6.0,54,0.00,,---,0.00,VWS V14.01,2013-04-02 06:20:00,
2013-04-02 02:25:00,31.6,16.9,30.17,NW,324,4.0,6.0,54,0.00,,---,0.00,VWS V14.01,2013-04-02 06:25:00,
2013-04-02 02:30:00,31.6,16.9,30.17,NW,318,4.0,6.0,54,0.00,,---,0.00,VWS V14.01,2013-04-02 06:30:00,
2013-04-02 02:35:00,31.6,16.9,30.17,NW,315,4.0,5.0,54,0.00,,---,0.00,VWS V14.01,2013-04-02 06:35:00,
2013-04-02 02:40:00,31.5,17.2,30.17,NW,317,4.0,6.0,55,0.00,,---,0.00,VWS V14.01,2013-04-02 06:40:00,
2013-04-02 02:45:00,31.3,17.0,30.17,NW,315,4.0,6.0,55,0.00,,---,0.00,VWS V14.01,2013-04-02 06:45:00,
2013-04-02 02:50:00,31.2,18.2,30.17,NW,313,4.0,6.0,58,0.00,,---,0.00,VWS V14.01,2013-04-02 06:50:00,
2013-04-02 02:55:00,31.2,17.3,30.17,NW,319,4.0,6.0,56,0.00,,---,0.00,VWS V14.01,2013-04-02 06:55:00,
2013-04-02 03:00:00,30.9,17.1,30.17,NW,316,4.0,6.0,56,0.00,,---,0.00,VWS V14.01,2013-04-02 07:00:00,
2013-04-02 03:05:00,30.7,17.3,30.17,NW,317,4.0,5.0,57,0.00,,---,0.00,VWS V14.01,2013-04-02 07:05:00,
2013-04-02 03:10:00,30.7,17.3,30.17,NW,311,5.0,5.0,57,0.00,,---,0.00,VWS V14.01,2013-04-02 07:10:00,
2013-04-02 03:15:00,30.6,17.2,30.17,NW,316,3.0,5.0,57,0.00,,---,0.00,VWS V14.01,2013-04-02 07:15:00,
2013-04-02 03:20:00,30.4,17.4,30.17,NW,306,4.0,5.0,58,0.00,,---,0.00,VWS V14.01,2013-04-02 07:20:00,
2013-04-02 03:25:00,30.3,17.3,30.17,NW,308,2.0,5.0,58,0.00,,---,0.00,VWS V14.01,2013-04-02 07:25:00,
2013-04-02 03:30:00,30.3,17.3,30.17,NW,311,3.0,5.0,58,0.00,,---,0.00,VWS V14.01,2013-04-02 07:30:00,
2013-04-02 03:35:00,30.1,17.1,30.17,NW,317,5.0,5.0,58,0.00,,---,0.00,VWS V14.01,2013-04-02 07:35:00,
2013-04-02 03:40:00,30.1,17.1,30.17,NW,315,3.0,6.0,58,0.00,,---,0.00,VWS V14.01,2013-04-02 07:40:00,
2013-04-02 03:45:00,30.0,17.4,30.17,NW,304,3.0,6.0,59,0.00,,---,0.00,VWS V14.01,2013-04-02 07:45:00,
2013-04-02 03:50:00,29.8,17.2,30.17,WNW,297,5.0,6.0,59,0.00,,---,0.00,VWS V14.01,2013-04-02 07:50:00,
2013-04-02 03:55:00,29.7,17.1,30.17,NW,304,4.0,6.0,59,0.00,,---,0.00,VWS V14.01,2013-04-02 07:55:00,
2013-04-02 04:00:00,29.7,17.5,30.17,NW,311,3.0,6.0,60,0.00,,---,0.00,VWS V14.01,2013-04-02 08:00:00,
2013-04-02 04:05:00,29.5,17.3,30.18,NW,306,4.0,5.0,60,0.00,,---,0.00,VWS V14.01,2013-04-02 08:05:00,
2013-04-02 04:10:00,29.5,17.3,30.18,WNW,302,3.0,5.0,60,0.00,,---,0.00,VWS V14.01,2013-04-02 08:10:00,
2013-04-02 04:15:00,29.4,17.2,30.18,NW,305,3.0,5.0,60,0.00,,---,0.00,VWS V14.01,2013-04-02 08:15:00,
2013-04-02 04:20:00,29.4,17.2,30.18,WNW,299,2.0,5.0,60,0.00,,---,0.00,VWS V14.01,2013-04-02 08:20:00,
2013-04-02 04:25:00,29.4,17.2,30.18,WNW,299,3.0,5.0,60,0.00,,---,0.00,VWS V14.01,2013-04-02 08:25:00,
2013-04-02 04:30:00,29.4,17.2,30.18,NW,307,3.0,5.0,60,0.00,,---,0.00,VWS V14.01,2013-04-02 08:30:00,
2013-04-02 04:35:00,29.3,17.1,30.18,WNW,300,3.0,5.0,60,0.00,,---,0.00,VWS V14.01,2013-04-02 08:35:00,
2013-04-02 04:40:00,29.1,17.0,30.18,WNW,301,4.0,6.0,60,0.00,,---,0.00,VWS V14.01,2013-04-02 08:40:00,
2013-04-02 04:45:00,29.0,16.9,30.19,WNW,298,4.0,6.0,60,0.00,,---,0.00,VWS V14.01,2013-04-02 08:45:00,
2013-04-02 04:50:00,29.0,16.9,30.19,NW,306,3.0,6.0,60,0.00,,---,0.00,VWS V14.01,2013-04-02 08:50:00,
2013-04-02 04:55:00,29.1,17.0,30.18,NW,311,5.0,6.0,60,0.00,,---,0.00,VWS V14.01,2013-04-02 08:55:00,
2013-04-02 05:00:00,29.1,17.0,30.19,NW,304,3.0,6.0,60,0.00,,---,0.00,VWS V14.01,2013-04-02 09:00:00,
2013-04-02 05:05:00,29.1,17.0,30.19,WNW,298,5.0,6.0,60,0.00,,---,0.00,VWS V14.01,2013-04-02 09:05:00,
2013-04-02 05:10:00,29.1,17.0,30.19,NW,319,5.0,6.0,60,0.00,,---,0.00,VWS V14.01,2013-04-02 09:10:00,
2013-04-02 05:15:00,29.3,17.1,30.19,NW,316,2.0,6.0,60,0.00,,---,0.00,VWS V14.01,2013-04-02 09:15:00,
2013-04-02 05:20:00,29.1,17.3,30.19,NW,308,3.0,6.0,61,0.00,,---,0.00,VWS V14.01,2013-04-02 09:20:00,
2013-04-02 05:25:00,29.0,17.2,30.19,WNW,301,4.0,6.0,61,0.00,,---,0.00,VWS V14.01,2013-04-02 09:25:00,
2013-04-02 05:30:00,28.8,17.4,30.19,WNW,300,3.0,6.0,62,0.00,,---,0.00,VWS V14.01,2013-04-02 09:30:00,
2013-04-02 05:35:00,28.7,17.3,30.20,WNW,298,2.0,6.0,62,0.00,,---,0.00,VWS V14.01,2013-04-02 09:35:00,
2013-04-02 05:40:00,28.5,17.1,30.20,WNW,298,4.0,6.0,62,0.00,,---,0.00,VWS V14.01,2013-04-02 09:40:00,
2013-04-02 05:45:00,28.4,17.1,30.20,WNW,300,5.0,6.0,62,0.00,,---,0.00,VWS V14.01,2013-04-02 09:45:00,
2013-04-02 05:50:00,28.4,17.1,30.20,NW,306,4.0,7.0,62,0.00,,---,0.00,VWS V14.01,2013-04-02 09:50:00,
2013-04-02 05:55:00,28.5,17.1,30.20,NW,313,4.0,7.0,62,0.00,,---,0.00,VWS V14.01,2013-04-02 09:55:00,
2013-04-02 06:00:00,28.5,17.1,30.20,NW,321,4.0,7.0,62,0.00,,---,0.00,VWS V14.01,2013-04-02 10:00:00,
2013-04-02 06:05:00,28.5,17.1,30.21,WNW,300,4.0,6.0,62,0.00,,---,0.00,VWS V14.01,2013-04-02 10:05:00,
2013-04-02 06:10:00,28.4,17.4,30.21,WNW,295,4.0,7.0,63,0.00,,---,0.00,VWS V14.01,2013-04-02 10:10:00,
2013-04-02 06:15:00,28.2,17.2,30.21,NW,308,4.0,7.0,63,0.00,,---,0.00,VWS V14.01,2013-04-02 10:15:00,
2013-04-02 06:20:00,28.2,17.2,30.21,NW,306,3.0,7.0,63,0.00,,---,0.00,VWS V14.01,2013-04-02 10:20:00,
2013-04-02 06:25:00,28.2,17.2,30.21,NW,304,3.0,8.0,63,0.00,,---,0.00,VWS V14.01,2013-04-02 10:25:00,
2013-04-02 06:30:00,28.1,17.1,30.22,WNW,302,4.0,8.0,63,0.00,,---,0.00,VWS V14.01,2013-04-02 10:30:00,
2013-04-02 06:35:00,28.1,17.5,30.22,WNW,298,4.0,6.0,64,0.00,,---,0.00,VWS V14.01,2013-04-02 10:35:00,
2013-04-02 06:40:00,27.9,17.3,30.22,NW,310,4.0,7.0,64,0.00,,---,0.00,VWS V14.01,2013-04-02 10:40:00,
2013-04-02 06:45:00,27.9,17.3,30.22,NW,313,6.0,7.0,64,0.00,,---,0.00,VWS V14.01,2013-04-02 10:45:00,
2013-04-02 06:50:00,27.9,17.3,30.22,WNW,301,4.0,7.0,64,0.00,,---,0.00,VWS V14.01,2013-04-02 10:50:00,
2013-04-02 06:55:00,27.9,17.3,30.22,WNW,294,4.0,7.0,64,0.00,,---,0.00,VWS V14.01,2013-04-02 10:55:00,
2013-04-02 07:00:00,27.8,17.2,30.23,WNW,292,4.0,7.0,64,0.00,,---,0.00,VWS V14.01,2013-04-02 11:00:00,
2013-04-02 07:05:00,27.8,17.2,30.23,WNW,296,3.0,5.0,64,0.00,,---,0.00,VWS V14.01,2013-04-02 11:05:00,
2013-04-02 07:10:00,27.6,17.4,30.23,WNW,293,3.0,6.0,65,0.00,,---,0.00,VWS V14.01,2013-04-02 11:10:00,
2013-04-02 07:15:00,27.5,17.3,30.23,WNW,292,4.0,6.0,65,0.00,,---,0.00,VWS V14.01,2013-04-02 11:15:00,
2013-04-02 07:20:00,27.5,16.9,30.23,WNW,282,4.0,6.0,64,0.00,,---,0.00,VWS V14.01,2013-04-02 11:20:00,
2013-04-02 07:25:00,27.5,16.9,30.23,WNW,292,5.0,6.0,64,0.00,,---,0.00,VWS V14.01,2013-04-02 11:25:00,
2013-04-02 07:30:00,27.5,17.3,30.23,WNW,291,4.0,6.0,65,0.00,,---,0.00,VWS V14.01,2013-04-02 11:30:00,
2013-04-02 07:35:00,27.3,17.1,30.23,WNW,294,2.0,4.0,65,0.00,,---,0.00,VWS V14.01,2013-04-02 11:35:00,
2013-04-02 07:40:00,27.2,17.0,30.24,WNW,302,3.0,5.0,65,0.00,,---,0.00,VWS V14.01,2013-04-02 11:40:00,
2013-04-02 07:45:00,27.2,17.0,30.24,NW,306,3.0,6.0,65,0.00,,---,0.00,VWS V14.01,2013-04-02 11:45:00,
2013-04-02 07:50:00,27.3,17.1,30.24,WNW,301,6.0,6.0,65,0.00,,---,0.00,VWS V14.01,2013-04-02 11:50:00,
2013-04-02 07:55:00,27.3,17.1,30.24,NW,308,4.0,6.0,65,0.00,,---,0.00,VWS V14.01,2013-04-02 11:55:00,
2013-04-02 08:00:00,27.3,17.1,30.24,NW,304,4.0,6.0,65,0.00,,---,0.00,VWS V14.01,2013-04-02 12:00:00,
2013-04-02 08:05:00,27.3,17.5,30.25,NW,308,5.0,6.0,66,0.00,,---,0.00,VWS V14.01,2013-04-02 12:05:00,
2013-04-02 08:10:00,27.6,17.4,30.25,NW,306,4.0,8.0,65,0.00,,---,0.00,VWS V14.01,2013-04-02 12:10:00,
2013-04-02 08:15:00,27.8,17.6,30.25,WNW,298,4.0,8.0,65,0.00,,---,0.00,VWS V14.01,2013-04-02 12:15:00,
2013-04-02 08:20:00,27.9,17.7,30.25,NW,306,4.0,8.0,65,0.00,,---,0.00,VWS V14.01,2013-04-02 12:20:00,
2013-04-02 08:25:00,27.9,17.7,30.26,WNW,302,3.0,8.0,65,0.00,,---,0.00,VWS V14.01,2013-04-02 12:25:00,
2013-04-02 08:30:00,28.1,18.2,30.26,WNW,301,4.0,8.0,66,0.00,,---,0.00,VWS V14.01,2013-04-02 12:30:00,
2013-04-02 08:35:00,28.1,18.2,30.26,WNW,296,5.0,7.0,66,0.00,,---,0.00,VWS V14.01,2013-04-02 12:35:00,
2013-04-02 08:40:00,28.2,18.7,30.26,NW,306,4.0,7.0,67,0.00,,---,0.00,VWS V14.01,2013-04-02 12:40:00,
2013-04-02 08:45:00,28.4,18.5,30.27,NW,310,5.0,7.0,66,0.00,,---,0.00,VWS V14.01,2013-04-02 12:45:00,
2013-04-02 08:50:00,28.7,18.8,30.27,NW,306,4.0,7.0,66,0.00,,---,0.00,VWS V14.01,2013-04-02 12:50:00,
2013-04-02 08:55:00,29.0,19.1,30.27,NW,320,6.0,7.0,66,0.00,,---,0.00,VWS V14.01,2013-04-02 12:55:00,
2013-04-02 09:00:00,29.3,19.4,30.27,NW,313,7.0,7.0,66,0.00,,---,0.00,VWS V14.01,2013-04-02 13:00:00,
2013-04-02 09:05:00,29.4,19.1,30.27,NW,304,5.0,7.0,65,0.00,,---,0.00,VWS V14.01,2013-04-02 13:05:00,
2013-04-02 09:10:00,29.7,19.0,30.27,NW,321,5.0,8.0,64,0.00,,---,0.00,VWS V14.01,2013-04-02 13:10:00,
2013-04-02 09:15:00,29.8,18.4,30.28,NW,308,7.0,9.0,62,0.00,,---,0.00,VWS V14.01,2013-04-02 13:15:00,
2013-04-02 09:20:00,30.0,18.6,30.28,NNW,331,5.0,9.0,62,0.00,,---,0.00,VWS V14.01,2013-04-02 13:20:00,
2013-04-02 09:25:00,30.1,18.3,30.28,NW,317,4.0,9.0,61,0.00,,---,0.00,VWS V14.01,2013-04-02 13:25:00,
2013-04-02 09:30:00,30.3,18.5,30.28,North,355,8.0,9.0,61,0.00,,---,0.00,VWS V14.01,2013-04-02 13:30:00,
2013-04-02 09:35:00,30.6,18.8,30.28,NW,325,8.0,9.0,61,0.00,,---,0.00,VWS V14.01,2013-04-02 13:35:00,
2013-04-02 09:40:00,30.9,18.7,30.28,NNW,327,5.0,9.0,60,0.00,,---,0.00,VWS V14.01,2013-04-02 13:40:00,
2013-04-02 09:45:00,31.3,19.4,30.28,NW,323,5.0,9.0,61,0.00,,---,0.00,VWS V14.01,2013-04-02 13:45:00,
2013-04-02 09:50:00,31.6,18.5,30.28,NW,309,5.0,9.0,58,0.00,,---,0.00,VWS V14.01,2013-04-02 13:50:00,
2013-04-02 09:55:00,31.9,18.4,30.28,NNW,344,5.0,9.0,57,0.00,,---,0.00,VWS V14.01,2013-04-02 13:55:00,
2013-04-02 10:00:00,32.2,18.3,30.28,NNW,329,7.0,9.0,56,0.00,,---,0.00,VWS V14.01,2013-04-02 14:00:00,
2013-04-02 10:05:00,32.5,17.3,30.28,NNE,17,8.0,9.0,53,0.00,,---,0.00,VWS V14.01,2013-04-02 14:05:00,
2013-04-02 10:10:00,32.7,17.0,30.29,NNE,24,6.0,9.0,52,0.00,,---,0.00,VWS V14.01,2013-04-02 14:10:00,
2013-04-02 10:15:00,33.1,17.0,30.29,NNW,336,2.0,9.0,51,0.00,,---,0.00,VWS V14.01,2013-04-02 14:15:00,
2013-04-02 10:20:00,33.7,18.0,30.29,NNW,348,3.0,9.0,52,0.00,,---,0.00,VWS V14.01,2013-04-02 14:20:00,
2013-04-02 10:25:00,34.1,17.0,30.29,NNE,32,4.0,9.0,49,0.00,,---,0.00,VWS V14.01,2013-04-02 14:25:00,
2013-04-02 10:30:00,34.0,17.3,30.29,NW,317,3.0,9.0,50,0.00,,---,0.00,VWS V14.01,2013-04-02 14:30:00,
2013-04-02 10:35:00,34.4,18.6,30.29,North,5,7.0,7.0,52,0.00,,---,0.00,VWS V14.01,2013-04-02 14:35:00,
2013-04-02 10:40:00,34.7,17.0,30.29,NW,319,6.0,7.0,48,0.00,,---,0.00,VWS V14.01,2013-04-02 14:40:00,
2013-04-02 10:45:00,35.0,17.8,30.29,WNW,295,4.0,7.0,49,0.00,,---,0.00,VWS V14.01,2013-04-02 14:45:00,
2013-04-02 10:50:00,35.2,18.4,30.29,NW,318,1.0,8.0,50,0.00,,---,0.00,VWS V14.01,2013-04-02 14:50:00,
2013-04-02 10:55:00,35.6,18.3,30.29,NNW,327,5.0,8.0,49,0.00,,---,0.00,VWS V14.01,2013-04-02 14:55:00,
2013-04-02 11:00:00,35.5,14.7,30.29,NW,315,3.0,8.0,42,0.00,,---,0.00,VWS V14.01,2013-04-02 15:00:00,
2013-04-02 11:04:00,35.5,15.8,30.29,NW,320,5.0,5.0,44,0.00,,---,0.00,VWS V14.01,2013-04-02 15:04:00,
2013-04-02 11:09:00,35.3,15.1,30.29,West,277,0.0,5.0,43,0.00,,---,0.00,VWS V14.01,2013-04-02 15:09:00,
2013-04-02 11:14:00,35.8,15.5,30.29,NNW,348,0.0,8.0,43,0.00,,---,0.00,VWS V14.01,2013-04-02 15:14:00,
2013-04-02 11:19:00,36.0,15.7,30.29,WNW,296,5.0,8.0,43,0.00,,---,0.00,VWS V14.01,2013-04-02 15:19:00,
2013-04-02 11:24:00,36.0,16.7,30.29,NW,306,1.0,8.0,45,0.00,,---,0.00,VWS V14.01,2013-04-02 15:24:00,
2013-04-02 11:29:00,36.0,16.7,30.29,NW,319,1.0,8.0,45,0.00,,---,0.00,VWS V14.01,2013-04-02 15:29:00,
2013-04-02 11:30:00,36.5,14.5,30.29,NW,315,3.0,10.0,40,0.00,,---,0.00,VWS V14.01,2013-04-02 15:30:00,
2013-04-02 11:34:00,36.5,15.6,30.29,NW,319,9.0,9.0,42,0.00,,---,0.00,VWS V14.01,2013-04-02 15:34:00,
2013-04-02 11:39:00,36.6,11.6,30.29,WNW,285,4.0,9.0,35,0.00,,---,0.00,VWS V14.01,2013-04-02 15:39:00,
2013-04-02 11:45:00,36.8,13.6,30.29,WNW,297,8.0,9.0,38,0.00,,---,0.00,VWS V14.01,2013-04-02 15:45:00,
2013-04-02 11:50:00,37.2,14.5,30.29,NW,309,10.0,10.0,39,0.00,,---,0.00,VWS V14.01,2013-04-02 15:50:00,
2013-04-02 11:55:00,37.3,15.8,30.29,NW,304,4.0,10.0,41,0.00,,---,0.00,VWS V14.01,2013-04-02 15:55:00,
2013-04-02 12:00:00,37.0,14.4,30.29,WNW,287,2.0,10.0,39,0.00,,---,0.00,VWS V14.01,2013-04-02 16:00:00,
2013-04-02 12:05:00,37.3,14.0,30.29,NNW,335,3.0,10.0,38,0.00,,---,0.00,VWS V14.01,2013-04-02 16:05:00,
2013-04-02 12:10:00,37.8,15.1,30.29,NNW,332,5.0,10.0,39,0.00,,---,0.00,VWS V14.01,2013-04-02 16:10:00,
2013-04-02 12:15:00,37.5,13.0,30.29,WNW,293,7.0,10.0,36,0.00,,---,0.00,VWS V14.01,2013-04-02 16:15:00,
2013-04-02 12:20:00,37.2,13.9,30.29,WNW,296,7.0,10.0,38,0.00,,---,0.00,VWS V14.01,2013-04-02 16:20:00,
2013-04-02 12:25:00,37.8,13.3,30.29,North,5,10.0,10.0,36,0.00,,---,0.00,VWS V14.01,2013-04-02 16:25:00,
2013-04-02 12:30:00,38.0,12.8,30.29,NW,317,4.0,10.0,35,0.00,,---,0.00,VWS V14.01,2013-04-02 16:30:00,
2013-04-02 12:36:00,38.2,14.2,30.29,NNW,340,5.0,10.0,37,0.00,,---,0.00,VWS V14.01,2013-04-02 16:36:00,
2013-04-02 12:41:00,37.9,13.4,30.29,NW,321,7.0,10.0,36,0.00,,---,0.00,VWS V14.01,2013-04-02 16:41:00,
2013-04-02 12:46:00,38.0,12.8,30.28,NNW,346,6.0,10.0,35,0.00,,---,0.00,VWS V14.01,2013-04-02 16:46:00,
2013-04-02 12:51:00,38.2,13.0,30.28,West,261,11.0,11.0,35,0.00,,---,0.00,VWS V14.01,2013-04-02 16:51:00,
2013-04-02 12:56:00,37.8,15.1,30.28,NW,320,3.0,11.0,39,0.00,,---,0.00,VWS V14.01,2013-04-02 16:56:00,
2013-04-02 13:00:00,38.3,13.7,30.27,West,270,6.0,13.0,36,0.00,,---,0.00,VWS V14.01,2013-04-02 17:00:00,
2013-04-02 13:30:00,39.3,13.3,30.27,NW,315,7.0,14.0,34,0.00,,---,0.00,VWS V14.01,2013-04-02 17:30:00,
2013-04-02 14:00:00,40.1,14.0,30.26,NW,315,7.0,16.0,34,0.00,,---,0.00,VWS V14.01,2013-04-02 18:00:00,
2013-04-02 14:30:00,41.2,9.8,30.25,WNW,292,7.0,15.0,27,0.00,,---,0.00,VWS V14.01,2013-04-02 18:30:00,
2013-04-02 15:00:00,41.5,10.8,30.23,WNW,292,8.0,17.0,28,0.00,,---,0.00,VWS V14.01,2013-04-02 19:00:00,
2013-04-02 15:30:00,42.8,10.3,30.23,WNW,292,9.0,18.0,26,0.00,,---,0.00,VWS V14.01,2013-04-02 19:30:00,
2013-04-02 16:00:00,43.5,12.6,30.22,WNW,292,6.0,16.0,28,0.00,,---,0.00,VWS V14.01,2013-04-02 20:00:00,
2013-04-02 16:30:00,44.1,12.3,30.21,WNW,292,8.0,16.0,27,0.00,,---,0.00,VWS V14.01,2013-04-02 20:30:00,
2013-04-02 17:00:00,43.9,9.5,30.22,WNW,292,9.0,17.0,24,0.00,,---,0.00,VWS V14.01,2013-04-02 21:00:00,
2013-04-02 17:30:00,44.6,10.1,30.22,WNW,292,8.0,15.0,24,0.00,,---,0.00,VWS V14.01,2013-04-02 21:30:00,
2013-04-02 18:00:00,44.1,9.6,30.22,WNW,292,9.0,17.0,24,0.00,,---,0.00,VWS V14.01,2013-04-02 22:00:00,
2013-04-02 18:30:00,44.5,10.9,30.22,WNW,292,7.0,17.0,25,0.00,,---,0.00,VWS V14.01,2013-04-02 22:30:00,
2013-04-02 19:00:00,43.8,10.3,30.23,NW,315,7.0,14.0,25,0.00,,---,0.00,VWS V14.01,2013-04-02 23:00:00,
2013-04-02 19:30:00,42.9,11.2,30.23,NW,315,7.0,13.0,27,0.00,,---,0.00,VWS V14.01,2013-04-02 23:30:00,
2013-04-02 20:00:00,41.6,10.1,30.23,NW,315,6.0,13.0,27,0.00,,---,0.00,VWS V14.01,2013-04-03 00:00:00,
2013-04-02 21:00:00,39.2,11.1,30.24,NNW,338,3.0,7.0,31,0.00,,---,0.00,VWS V14.01,2013-04-03 01:00:00,
2013-04-02 21:30:00,38.9,11.6,30.25,NNW,338,4.0,7.0,32,0.00,,---,0.00,VWS V14.01,2013-04-03 01:30:00,
2013-04-02 22:00:00,38.3,11.7,30.26,NNW,338,4.0,6.0,33,0.00,,---,0.00,VWS V14.01,2013-04-03 02:00:00,
2013-04-02 22:30:00,38.5,10.5,30.27,NNW,338,4.0,7.0,31,0.00,,---,0.00,VWS V14.01,2013-04-03 02:30:00,
2013-04-02 23:00:00,38.3,10.3,30.27,NW,315,3.0,6.0,31,0.00,,---,0.00,VWS V14.01,2013-04-03 03:00:00,
2013-04-02 23:30:00,38.0,10.1,30.27,NW,315,3.0,6.0,31,0.00,,---,0.00,VWS V14.01,2013-04-03 03:30:00,